Shinkai Maru — JJ4012 — position and weather

sailwx.info

Track history (hours):
 
Tides and Currents Weather Stations Pressure Air Temp Water Temp Dewpoint Dewpoint Depression Visibility Wind Speed Wind Dir Waves Ship Positions

Shinkai Maru

Last reported at 2014-Nov-22 21:23 UTC. Time now 2014-Nov-23 10:03 UTC.
Position N 35°28' E 139°51'.

Length 76 m; draft 4.4 m.

Type: Cargo ship. MMSI: 431301346.

Date/timePositionNaut miles runAvg speedWind from/ knotsBaromVisibWave heightAir tempDewpointWater temp
2014-Nov-22 21:23N 35°28' E 139°51'911.5
2014-Nov-22 20:33N 35°20' E 139°45'243 9.0
2014-Nov-21 17:33N 34°19' E 134°58'1212.4
2014-Nov-21 16:33N 34°31' E 135°02'1210.6
2014-Nov-21 15:28N 34°39' E 134°51'0 0.0
2014-Nov-20 09:30N 34°39' E 134°51'1313.2
2014-Nov-20 08:33N 34°36' E 135°06'9 9.6
2014-Nov-20 07:34N 34°42' E 135°15'0 0.3
2014-Nov-20 06:34N 34°42' E 135°15'0 0.0
2014-Nov-20 05:10N 34°42' E 135°15'0 0.0
2014-Nov-20 04:28N 34°42' E 135°15'0 0.0
2014-Nov-20 03:28N 34°42' E 135°15'0 0.0
2014-Nov-20 02:28N 34°42' E 135°15'0 0.0
2014-Nov-20 01:34N 34°42' E 135°15'0 0.0
2014-Nov-20 00:34N 34°42' E 135°15'0 0.0
2014-Nov-19 23:28N 34°42' E 135°15'0 0.5
2014-Nov-19 22:33N 34°42' E 135°15'2 1.9
2014-Nov-19 21:33N 34°40' E 135°15'8 8.3
2014-Nov-19 20:33N 34°35' E 135°07'9 8.8
2014-Nov-19 19:32N 34°36' E 134°56'2 0.2
2014-Nov-19 09:19N 34°37' E 134°54'1012.5
2014-Nov-19 08:33N 34°34' E 135°05'1912.6
2014-Nov-19 07:04N 34°16' E 134°59'612.0
2014-Nov-19 06:33N 34°10' E 134°60'243 9.3
2014-Nov-18 04:33N 35°19' E 139°43'1010.4
2014-Nov-18 03:33N 35°28' E 139°49'2 0.1
2014-Nov-17 08:15N 35°29' E 139°51'811.9
2014-Nov-17 07:33N 35°22' E 139°45'245 9.7
2014-Nov-16 06:16N 34°13' E 134°59'811.1
2014-Nov-16 05:33N 34°21' E 134°59'1211.6
2014-Nov-16 04:33N 34°33' E 135°02'8 7.7
2014-Nov-16 03:32N 34°37' E 134°54'6 0.6
2014-Nov-15 18:09N 34°41' E 134°49'5 0.2
2014-Nov-14 12:33N 34°38' E 134°54'10 9.6
2014-Nov-14 11:33N 34°35' E 135°05'2211.1
2014-Nov-14 09:33N 34°13' E 134°60'1311.6
2014-Nov-14 08:27N 34°01' E 135°02'  
Track history (hours):
 
Tides and Currents Weather Stations Pressure Air Temp Water Temp Dewpoint Dewpoint Depression Visibility Wind Speed Wind Dir Waves Ship Positions

Shinkai Maru

Last reported at 2014-Nov-22 21:23 UTC. Time now 2014-Nov-23 10:03 UTC.
Position N 35°28' E 139°51'.

Length 76 m; draft 4.4 m.

Type: Cargo ship. MMSI: 431301346.

Date/timePositionNaut miles runAvg speedWind from/ knotsBaromVisibWave heightAir tempDewpointWater temp
2014-Nov-22 21:23N 35°28' E 139°51'911.5
2014-Nov-22 20:33N 35°20' E 139°45'243 9.0
2014-Nov-21 17:33N 34°19' E 134°58'1212.4
2014-Nov-21 16:33N 34°31' E 135°02'1210.6
2014-Nov-21 15:28N 34°39' E 134°51'0 0.0
2014-Nov-20 09:30N 34°39' E 134°51'1313.2
2014-Nov-20 08:33N 34°36' E 135°06'9 9.6
2014-Nov-20 07:34N 34°42' E 135°15'0 0.3
2014-Nov-20 06:34N 34°42' E 135°15'0 0.0
2014-Nov-20 05:10N 34°42' E 135°15'0 0.0
2014-Nov-20 04:28N 34°42' E 135°15'0 0.0
2014-Nov-20 03:28N 34°42' E 135°15'0 0.0
2014-Nov-20 02:28N 34°42' E 135°15'0 0.0
2014-Nov-20 01:34N 34°42' E 135°15'0 0.0
2014-Nov-20 00:34N 34°42' E 135°15'0 0.0
2014-Nov-19 23:28N 34°42' E 135°15'0 0.5
2014-Nov-19 22:33N 34°42' E 135°15'2 1.9
2014-Nov-19 21:33N 34°40' E 135°15'8 8.3
2014-Nov-19 20:33N 34°35' E 135°07'9 8.8
2014-Nov-19 19:32N 34°36' E 134°56'2 0.2
2014-Nov-19 09:19N 34°37' E 134°54'1012.5
2014-Nov-19 08:33N 34°34' E 135°05'1912.6
2014-Nov-19 07:04N 34°16' E 134°59'612.0
2014-Nov-19 06:33N 34°10' E 134°60'243 9.3
2014-Nov-18 04:33N 35°19' E 139°43'1010.4
2014-Nov-18 03:33N 35°28' E 139°49'2 0.1
2014-Nov-17 08:15N 35°29' E 139°51'811.9
2014-Nov-17 07:33N 35°22' E 139°45'245 9.7
2014-Nov-16 06:16N 34°13' E 134°59'811.1
2014-Nov-16 05:33N 34°21' E 134°59'1211.6
2014-Nov-16 04:33N 34°33' E 135°02'8 7.7
2014-Nov-16 03:32N 34°37' E 134°54'6 0.6
2014-Nov-15 18:09N 34°41' E 134°49'5 0.2
2014-Nov-14 12:33N 34°38' E 134°54'10 9.6
2014-Nov-14 11:33N 34°35' E 135°05'2211.1
2014-Nov-14 09:33N 34°13' E 134°60'1311.6
2014-Nov-14 08:27N 34°01' E 135°02'  

Dump ship's entire track history